Location: Miss�
(46.9484°N, 0.1922°W)
Time: 08:26:38
(UTC+00:00)

Gbstr 26 Del rocket - Pass Details

Date: 02 March 2021
Orbit: 492 x 1264 km, 51.8° (Epoch: 11 April)

Event Time Altitude Azimuth Distance (km) Brightness Sun altitude
Rises 18:10:42 0° 252° (WSW) 2,695 8.4 -4.7°
Reaches altitude 10° 18:12:46 10° 255° (WSW) 1,871 7.3 -5.0°
Maximum altitude 18:16:59 70° 340° (NNW) 686 3.4 -5.8°
Drops below altitude 10° 18:22:09 10° 64° (ENE) 2,281 5.4 -6.6°
Enters shadow 18:23:07 - 65° (ENE) 2,658 5.7 -6.8°
